User: anonymous   Login
Location: Unspecified
(0.0000°N, 0.0000°E)
Time: 10:24:03
(UTC+00:00)
Language:

Alouette 1 - Orbit

View from above orbital plane
View from above orbital plane
View from above satellite
View from above satellite

Ground track
Ground track

The orbit data is extracted from the following two-line orbital elements,

1 00424U 62049A   15247.23544712  .00000058  00000-0  56432-4 0  9995
2 00424  80.4683 191.6899 0022694 318.7870 147.7004 13.69024801642268
Epoch (UTC): 04 September 2015 05:39:02
Eccentricity: 0.0022694
inclination: 80.4683°
perigee height: 986 km
apogee height: 1020 km
right ascension of ascending node: 191.6899°
argument of perigee: 318.7870°
revolutions per day: 13.69024801
mean anomaly at epoch: 147.7004°
orbit number at epoch: 64226

The dashed part of the orbit path shows where the satellite is in the earth's shadow,  

DLR